[[{"header":{"parameterUnit":"m.s-1","parameterCategory":1,"la1":30.2991,"la2":30.254,"lo1":-89.0895,"lo2":-89.0444,"dy":0.0017,"dx":0.0017,"nx":28,"ny":28,"refTime":"2023-09-02T03:00:00:Z","depth":0,"parameterNumber":2,"parameterNumberName":"U-component_of_WINDS"},"data":[0,0,0,0,0,0,0,0,0,0,0,0,0,0,0,0,0,0,0,0,0,0,0,0,0,0,0,0,0,0,0,0,0,0,0,0,0,0,0,0,0,0,0,0,0,0,0,0,0,0,0,0,0,0,0,0,0,0,-2.2565,-2.2567,0,-2.2681,-2.2682,-2.2683,-2.273,-2.2729,-2.2729,-2.2729,-2.2845,-2.2848,-2.2851,0,0,0,0,0,0,0,0,0,0,0,0,0,-2.2382,-2.2385,-2.2565,-2.2567,-2.2568,-2.2681,-2.2682,-2.2684,-2.273,-2.2729,-2.2729,-2.2729,-2.2844,-2.2848,-2.2852,0,0,0,0,0,0,0,0,0,0,0,0,0,-2.2476,-2.2386,-2.2565,-2.2605,-2.2609,-2.268,-2.2682,-2.2684,-2.273,-2.2729,-2.2729,-2.2729,-2.2842,-2.2847,-2.2852,-2.2892,0,0,-2.2868,-2.287,0,0,0,0,0,0,0,0,-2.247,-2.2482,-2.2597,-2.2602,-2.2607,-2.269,-2.266,-2.2754,-2.273,-2.2684,-2.2729,-2.2728,-2.2794,-2.2803,-2.2825,-2.2897,-2.2902,-2.2868,-2.2871,-2.2873,-2.2875,0,0,0,0,0,0,0,-2.2464,-2.2478,-2.2611,-2.2599,-2.2605,-2.2616,-2.2629,-2.2678,-2.274,-2.2688,-2.2692,-2.2705,-2.2796,-2.282,-2.2828,-2.2904,-2.2868,-2.2872,-2.2875,-2.2877,-2.3012,-2.3013,0,0,0,0,0,0,-2.2451,-2.2472,-2.2607,-2.2614,-2.2536,-2.2619,-2.2634,-2.2664,-2.2739,-2.275,-2.2705,-2.2706,-2.2812,-2.2822,-2.2832,-2.2883,-2.2873,-2.2878,-2.2881,-2.3012,-2.3012,-2.3013,0,0,0,0,0,0,-2.2447,-2.2463,-2.2603,-2.2544,-2.2563,-2.2623,-2.2657,-2.2667,-2.2691,-2.2752,-2.2763,-2.2718,-2.2812,-2.2825,-2.2876,-2.2888,-2.288,-2.2885,-2.3011,-2.3012,-2.3013,-2.2984,0,0,0,0,0,0,-2.2441,-2.2461,-2.2477,-2.2544,-2.2566,-2.2645,-2.2657,-2.2669,-2.2699,-2.2703,-2.2768,-2.2778,-2.2813,-2.2869,-2.2881,-2.2894,-2.2889,-2.301,-2.3011,-2.3012,-2.2984,-2.2984,-2.2983,0,0,0,0,0,-2.2435,-2.2464,-2.2478,-2.2494,-2.2588,-2.2646,-2.2658,-2.2698,-2.27,-2.2717,-2.2756,-2.2776,-2.2884,-2.2874,-2.2888,-2.2903,-2.301,-2.3011,-2.3012,-2.2984,-2.2984,-2.2983,0,0,0,0,0,0,-2.2396,-2.2474,-2.249,-2.2542,-2.2587,-2.2654,-2.2676,-2.2696,-2.2742,-2.2742,-2.2789,-2.2804,-2.285,-2.2882,-2.2869,-2.2944,-2.2948,-2.2953,-2.2922,-2.2922,-2.2922,-2.2913,-2.2893,0,0,0,0,0,-2.2394,-2.2436,-2.2501,-2.2541,-2.2563,-2.2615,-2.2642,-2.2669,-2.2717,-2.2736,-2.278,-2.2825,-2.2869,-2.2897,-2.2942,-2.2989,-2.3003,-2.3006,-2.3006,-2.3005,-2.3008,-2.3034,-2.3036,-2.3017,-2.3017,-2.3017,0,0,-2.239,-2.2437,-2.2461,-2.2534,-2.2572,-2.2614,-2.2631,-2.2674,-2.2705,-2.2743,-2.2794,-2.2827,-2.288,-2.2929,-2.2953,-2.2957,-2.3016,-2.3007,-2.3006,-2.3009,-2.3036,-2.3038,-2.3039,-2.3018,-2.3018,-2.3018,0,0,-2.2403,-2.2443,-2.2481,-2.2518,-2.2576,-2.261,-2.2619,-2.2683,-2.2706,-2.2758,-2.2787,-2.2824,-2.2899,-2.2936,-2.2965,-2.2991,-2.301,-2.3003,-2.3001,-2.3026,-2.3028,-2.3029,-2.3038,-2.3041,-2.3006,-2.3006,-2.3006,0,-2.239,-2.2454,-2.2497,-2.2539,-2.2569,-2.2606,-2.2643,-2.2678,-2.2746,-2.2766,-2.277,-2.2865,-2.2904,-2.2961,-2.2967,-2.299,-2.3,-2.2996,-2.3024,-2.3026,-2.3028,-2.3037,-2.304,-2.3005,-2.3005,-2.3005,-2.3005,0,-2.2435,-2.2479,-2.2502,-2.2568,-2.2601,-2.2641,-2.2688,-2.2717,-2.274,-2.2774,-2.2826,-2.2873,-2.2928,-2.2943,-2.2967,-2.3004,-2.3005,-2.3015,-2.3021,-2.3028,-2.3037,-2.3041,-2.3003,-2.3004,-2.3004,-2.3004,0,0,-2.2428,-2.2516,-2.2524,-2.2554,-2.262,-2.2654,-2.2694,-2.2748,-2.2771,-2.2817,-2.2851,-2.2913,-2.2924,-2.2956,-2.2984,-2.3006,-2.3022,-2.3014,-2.3016,-2.3014,-2.3066,-2.3057,-2.306,-2.3036,-2.3037,-2.3037,-2.3061,0,-2.245,-2.2524,-2.2563,-2.2621,-2.2661,-2.2696,-2.273,-2.2774,-2.2806,-2.2844,-2.288,-2.2923,-2.2934,-2.2954,-2.2977,-2.3015,-2.3033,-2.3014,-2.3067,-2.3069,-2.3053,-2.3065,-2.3056,-2.3076,-2.3065,-2.3065,-2.3066,0,-2.2485,-2.2531,-2.2592,-2.2652,-2.2671,-2.2701,-2.2753,-2.2789,-2.2839,-2.2861,-2.2896,-2.2924,-2.2966,-2.2968,-2.3027,-2.3013,-2.3037,-2.3059,-2.306,-2.3067,-2.3068,-2.3071,-2.3084,-2.3086,-2.3072,-2.3071,-2.3071,0,-2.2473,-2.255,-2.2596,-2.2621,-2.2692,-2.2713,-2.2743,-2.2793,-2.2822,-2.2866,-2.2886,-2.2935,-2.2961,-2.2998,-2.3037,-2.3035,-2.3092,-2.3097,-2.311,-2.3109,-2.3121,-2.3119,-2.3137,-2.3136,-2.3136,-2.3136,-2.3136,0,-2.2493,-2.2529,-2.2592,-2.262,-2.2661,-2.2705,-2.2744,-2.2777,-2.282,-2.2855,-2.2888,-2.292,-2.297,-2.3008,-2.3039,-2.3082,-2.3094,-2.3112,-2.312,-2.3109,-2.3107,-2.3126,-2.3125,-2.3137,-2.3137,-2.3137,-2.3137,0,-2.2486,-2.253,-2.2583,-2.2646,-2.2663,-2.269,-2.2744,-2.2772,-2.2806,-2.2849,-2.2862,-2.2915,-2.2961,-2.3004,-2.3065,-2.3086,-2.3129,-2.3139,-2.3113,-2.3117,-2.3128,-2.3126,-2.3158,-2.3164,-2.3159,-2.3159,-2.3159,0,-2.2496,-2.2525,-2.2591,-2.2617,-2.2647,-2.2688,-2.2718,-2.2762,-2.2791,-2.2849,-2.2871,-2.2919,-2.2961,-2.3032,-2.3076,-2.3122,-2.3134,-2.3142,-2.3141,-2.3129,-2.3133,-2.3131,-2.3134,-2.3141,-2.3141,-2.314,-2.314,0,-2.2509,-2.2528,-2.2571,-2.262,-2.2655,-2.2696,-2.2738,-2.2757,-2.2809,-2.284,-2.2888,-2.292,-2.2983,-2.303,-2.3082,-2.3113,-2.3135,-2.314,-2.3146,-2.3135,-2.3118,-2.3127,-2.3111,-2.3139,-2.3139,-2.3139,-2.314,-2.314,-2.2511,-2.2537,-2.2587,-2.2633,-2.2669,-2.2708,-2.2737,-2.2775,-2.2815,-2.287,-2.2893,-2.2941,-2.2989,-2.3061,-2.3091,-2.3129,-2.3134,-2.3142,-2.3144,-2.3145,-2.3143,-2.3112,-2.3139,-2.3139,-2.3139,-2.3139,-2.3139,0,-2.2524,-2.2558,-2.26,-2.2657,-2.2693,-2.2711,-2.2758,-2.2787,-2.2829,-2.2872,-2.2912,-2.2966,-2.3012,-2.3059,-2.3107,-2.3128,-2.314,-2.314,-2.3138,-2.3145,-2.3136,-2.3126,-2.313,-2.313,-2.313,-2.313,-2.313,-2.313,-2.2535,-2.2581,-2.2607,-2.267,-2.2704,-2.2752,-2.2777,-2.2812,-2.2847,-2.2906,-2.2945,-2.2975,-2.3019,-2.3071,-2.3114,-2.3126,-2.3142,-2.3139,-2.3155,-2.3145,-2.3146,-2.3146,-2.3137,-2.3143,-2.3143,-2.3161,-2.3161,-2.3161]},{"header":{"parameterUnit":"m.s-1","parameterCategory":1,"la1":30.2991,"la2":30.254,"lo1":-89.0895,"lo2":-89.0444,"dy":0.0017,"dx":0.0017,"nx":28,"ny":28,"refTime":"2023-09-02T03:00:00:Z","depth":0,"parameterNumber":3,"parameterNumberName":"V-component_of_WINDS"},"data":[0,0,0,0,0,0,0,0,0,0,0,0,0,0,0,0,0,0,0,0,0,0,0,0,0,0,0,0,0,0,0,0,0,0,0,0,0,0,0,0,0,0,0,0,0,0,0,0,0,0,0,0,0,0,0,0,0,0,3.5109,3.5111,0,3.5253,3.5254,3.5256,3.5238,3.5236,3.5234,3.5231,3.5375,3.5381,3.5387,0,0,0,0,0,0,0,0,0,0,0,0,0,3.4817,3.4822,3.5109,3.5111,3.5113,3.5252,3.5254,3.5256,3.5239,3.5236,3.5233,3.523,3.5373,3.538,3.5387,0,0,0,0,0,0,0,0,0,0,0,0,0,3.495,3.4824,3.5109,3.5121,3.5123,3.5252,3.5254,3.5257,3.5239,3.5236,3.5232,3.5229,3.5371,3.5379,3.5388,3.5513,0,0,3.5416,3.542,0,0,0,0,0,0,0,0,3.4943,3.4961,3.5117,3.512,3.5123,3.5224,3.5204,3.5343,3.524,3.5195,3.5231,3.5227,3.5327,3.534,3.5374,3.552,3.5526,3.5417,3.5422,3.5426,3.5428,0,0,0,0,0,0,0,3.4933,3.4955,3.5166,3.512,3.5123,3.5118,3.5133,3.523,3.5279,3.5199,3.5198,3.5215,3.5328,3.5366,3.5377,3.5528,3.5416,3.5424,3.543,3.5433,3.5781,3.5785,0,0,0,0,0,0,3.4921,3.4947,3.5161,3.517,3.5023,3.5126,3.5143,3.5195,3.5278,3.5287,3.5218,3.5214,3.5352,3.5367,3.5382,3.5533,3.5426,3.5434,3.5439,3.5778,3.5782,3.5787,0,0,0,0,0,0,3.4915,3.4941,3.5155,3.5058,3.5085,3.5135,3.5194,3.52,3.5237,3.5292,3.5301,3.5247,3.535,3.537,3.5481,3.5537,3.5438,3.5446,3.5773,3.5779,3.5784,3.5835,0,0,0,0,0,0,3.4907,3.4939,3.4988,3.506,3.5091,3.5253,3.5197,3.5205,3.5253,3.5249,3.5322,3.5331,3.5349,3.5467,3.5489,3.5548,3.5453,3.5768,3.5776,3.5783,3.5828,3.5841,3.5853,0,0,0,0,0,3.4897,3.4996,3.499,3.5016,3.5153,3.5256,3.5273,3.5293,3.5258,3.5306,3.5342,3.5328,3.5528,3.5479,3.5504,3.5566,3.5765,3.5774,3.5782,3.5823,3.5839,3.5853,0,0,0,0,0,0,3.4928,3.5005,3.5,3.5126,3.5184,3.5253,3.5315,3.531,3.5379,3.5372,3.5392,3.5409,3.552,3.5554,3.5498,3.569,3.5641,3.5655,3.5664,3.5679,3.5692,3.568,3.5461,0,0,0,0,0,3.495,3.5028,3.5091,3.5196,3.5225,3.5265,3.5311,3.5321,3.5382,3.5406,3.545,3.5509,3.5585,3.5634,3.5707,3.5833,3.5848,3.5888,3.59,3.591,3.5922,3.5989,3.6007,3.5815,3.5815,3.5815,0,0,3.4995,3.5047,3.5095,3.5203,3.525,3.5329,3.5286,3.5372,3.5431,3.5419,3.5526,3.556,3.5627,3.5746,3.5801,3.5778,3.5978,3.5921,3.5929,3.5935,3.6,3.6018,3.6034,3.5821,3.582,3.5819,0,0,3.5118,3.5166,3.5257,3.5305,3.5377,3.5402,3.5424,3.5494,3.5516,3.5624,3.5617,3.5686,3.5817,3.5865,3.5906,3.6046,3.6036,3.6069,3.6133,3.6199,3.6214,3.6228,3.6276,3.6294,3.6081,3.6081,3.6081,0,3.5165,3.5285,3.5305,3.5392,3.5439,3.5433,3.5525,3.557,3.5661,3.5693,3.5667,3.583,3.5875,3.6004,3.6038,3.6072,3.6097,3.606,3.6211,3.6224,3.6237,3.6284,3.6302,3.6084,3.6084,3.6084,3.6083,0,3.5338,3.5422,3.5487,3.5576,3.563,3.5719,3.5752,3.5804,3.5809,3.5837,3.5947,3.6,3.6083,3.6115,3.6121,3.6245,3.6228,3.6206,3.6157,3.6259,3.6302,3.6321,3.6089,3.6088,3.6087,3.6086,0,0,3.5484,3.5583,3.5606,3.5646,3.5724,3.5789,3.5877,3.5959,3.6003,3.6066,3.6139,3.625,3.623,3.6276,3.6287,3.6345,3.6451,3.6316,3.6318,3.6338,3.6589,3.6604,3.6624,3.6445,3.6449,3.6452,3.6583,0,3.5613,3.577,3.5791,3.5929,3.6005,3.6001,3.6077,3.6133,3.6161,3.6229,3.626,3.6338,3.6306,3.6334,3.6391,3.6426,3.6501,3.6417,3.6512,3.6515,3.6494,3.6648,3.6664,3.6786,3.66,3.6603,3.6605,0,3.5785,3.5853,3.6,3.6066,3.6099,3.6168,3.6244,3.6309,3.6372,3.6388,3.6441,3.6444,3.6534,3.6482,3.6605,3.6547,3.6587,3.661,3.6615,3.6624,3.6565,3.6659,3.6825,3.6843,3.6633,3.6631,3.6629,0,3.5875,3.6003,3.6107,3.6141,3.6222,3.627,3.6306,3.6365,3.6413,3.6479,3.651,3.6586,3.6627,3.6685,3.6708,3.6669,3.6829,3.678,3.6844,3.6843,3.6877,3.6874,3.705,3.6905,3.6905,3.6905,3.6904,0,3.6016,3.6105,3.6148,3.6212,3.6311,3.6334,3.6431,3.6465,3.6517,3.6586,3.6587,3.6651,3.6679,3.6748,3.6766,3.6864,3.6883,3.6898,3.6902,3.6897,3.6895,3.6923,3.6914,3.6909,3.6908,3.6907,3.6907,0,3.6133,3.6166,3.6278,3.6345,3.6364,3.6434,3.6491,3.6552,3.658,3.6668,3.6689,3.6733,3.6813,3.6843,3.6941,3.6953,3.7067,3.7064,3.7046,3.7046,3.7108,3.7101,3.7307,3.7334,3.7172,3.7174,3.7175,0,3.622,3.6289,3.6363,3.641,3.6448,3.6523,3.6572,3.6596,3.6646,3.6722,3.6773,3.6854,3.6919,3.7048,3.7088,3.7163,3.7161,3.7228,3.7172,3.7165,3.716,3.7155,3.7161,3.7238,3.7239,3.7241,3.7242,0,3.6371,3.6384,3.6454,3.6531,3.6589,3.665,3.6709,3.6747,3.678,3.6836,3.6919,3.697,3.707,3.7149,3.7226,3.7261,3.7257,3.7259,3.7278,3.7273,3.7259,3.7266,3.7072,3.7254,3.7253,3.7252,3.7251,3.7251,3.6475,3.6535,3.6597,3.6675,3.6722,3.6777,3.6837,3.6873,3.6943,3.7027,3.7036,3.7125,3.7185,3.7287,3.7326,3.7395,3.7376,3.7404,3.741,3.7416,3.742,3.725,3.7409,3.7409,3.7408,3.7408,3.7408,0,3.6624,3.6664,3.6736,3.6818,3.688,3.6871,3.6936,3.6987,3.7066,3.7122,3.7187,3.7281,3.7358,3.7404,3.7481,3.7527,3.7527,3.7546,3.7542,3.755,3.7433,3.7408,3.7545,3.7545,3.7545,3.7545,3.7545,3.7545,3.6709,3.681,3.683,3.6954,3.6993,3.708,3.7117,3.7168,3.7213,3.7319,3.7383,3.7412,3.7464,3.7544,3.7614,3.7625,3.7653,3.7674,3.7683,3.7573,3.7559,3.7545,3.7522,3.768,3.768,3.7795,3.7796,3.7797]}]]